GW4969 Weather Reports


time (UTC)temp
C
wind
direction
speed
KPH
gust
KPH
rain 1hr
cm
rain 24hr
cm
rain mn
cm
humidity
%
barometer
mb
20260507015343 19 306 1.6 8.0 0.00 0.00 0.00 63 1018.2
20260507015059 19 275 1.6 16.1 0.00 0.00 0.00 63 1018.1
20260507014343 19 251 3.2 16.1 0.00 0.00 0.00 63 1018.2
20260507014108 19 282 3.2 11.3 0.00 0.00 0.00 62 1018.3
20260507013342 19 279 4.8 11.3 0.00 0.00 0.00 62 1018.1
20260507013328 20 106 3.2 9.7 0.00 0.00 0.00 62 1018.1
20260507012343 19 113 3.2 9.7 0.00 0.00 0.00 61 1018.1
20260507011841 20 44 3.2 11.3 0.00 0.00 0.00 63 1018.1
20260507011342 20 305 3.2 11.3 0.00 0.00 0.00 62 1018.1
20260507011325 20 257 1.6 8.0 0.00 0.00 0.00 62 1018.0
20260507010601 20 90 3.2 9.7 0.00 0.00 0.00 61 1018.0
20260507005841 20 56 1.6 20.9 0.00 0.00 0.00 61 1018.1
20260507005605 20 31 3.2 20.9 0.00 0.00 0.00 62 1018.0
20260507004841 20 252 4.8 11.3 0.00 0.00 0.00 60 1018.1
20260507004341 20 313 4.8 11.3 0.00 0.00 0.00 61 1018.0
20260507003841 20 31 6.4 14.5 0.00 0.00 0.00 61 1017.9
20260507003340 21 331 1.6 14.5 0.00 0.00 0.00 61 1017.9
20260507002841 20 23 3.2 11.3 0.00 0.00 0.00 61 1018.0
20260507002341 21 212 6.4 11.3 0.00 0.00 0.00 60 1018.0
20260507002033 21 51 1.6 16.1 0.00 0.00 0.00 60 1018.0
20260507001924 21 226 4.8 9.7 0.00 0.00 0.00 61 1017.9
20260507001057 21 252 6.4 19.3 0.00 0.00 0.00 60 1018.0
20260507000343 21 245 8.0 19.3 0.00 0.00 0.00 59 1017.9
20260506235839 21 272 4.8 14.5 0.00 0.00 0.00 58 1017.9
20260506235341 21 104 3.2 9.7 0.00 0.00 0.00 58 1017.8
20260506234840 21 264 6.4 14.5 0.00 0.00 0.00 58 1017.8
20260506234340 21 248 3.2 14.5 0.00 0.00 0.00 57 1017.8
20260506233840 21 269 4.8 11.3 0.00 0.00 0.00 58 1017.8
20260506233340 21 25 3.2 9.7 0.00 0.00 0.00 57 1017.8
20260506233103 21 0 3.2 14.5 0.00 0.00 0.00 58 1017.8
20260506232340 21 32 3.2 14.5 0.00 0.00 0.00 57 1017.8
20260506231839 21 85 3.2 9.7 0.00 0.00 0.00 56 1018.0
20260506231339 21 72 3.2 9.7 0.00 0.00 0.00 56 1017.9
20260506230839 22 89 3.2 11.3 0.00 0.00 0.00 56 1017.9
20260506230339 22 269 3.2 11.3 0.00 0.00 0.00 56 1018.1
20260506225838 22 3 3.2 11.3 0.00 0.00 0.00 57 1018.0
20260506225824 22 82 1.6 6.4 0.00 0.00 0.00 56 1018.1
20260506225101 22 251 3.2 11.3 0.00 0.00 0.00 56 1018.2
20260506224339 22 272 3.2 14.5 0.00 0.00 0.00 55 1018.2
20260506223838 22 262 4.8 16.1 0.00 0.00 0.00 55 1018.2
20260506223337 22 289 4.8 16.1 0.00 0.00 0.00 55 1018.3
20260506222838 22 298 3.2 11.3 0.00 0.00 0.00 54 1018.3
20260506222338 22 269 4.8 11.3 0.00 0.00 0.00 53 1018.3
20260506221838 22 180 3.2 11.3 0.00 0.00 0.00 52 1018.4
20260506221338 22 285 3.2 14.5 0.00 0.00 0.00 53 1018.5
20260506220838 22 79 3.2 14.5 0.00 0.00 0.00 52 1018.5
20260506220338 22 259 3.2 8.0 0.00 0.00 0.00 53 1018.5
20260506215837 22 45 4.8 8.0 0.00 0.00 0.00 53 1018.6
20260506215336 22 21 3.2 9.7 0.00 0.00 0.00 52 1018.6
20260506214837 22 314 3.2 9.7 0.00 0.00 0.00 52 1018.7
20260506214338 22 220 3.2 8.0 0.00 0.00 0.00 51 1018.8
20260506213837 23 140 3.2 9.7 0.00 0.00 0.00 52 1018.8
20260506213555 22 251 3.2 9.7 0.00 0.00 0.00 52 1018.8
20260506212837 22 61 3.2 9.7 0.00 0.00 0.00 54 1018.9
20260506212337 22 255 3.2 9.7 0.00 0.00 0.00 53 1019.0
20260506211837 22 226 1.6 8.0 0.00 0.00 0.00 53 1019.0
20260506211335 22 285 4.8 9.7 0.00 0.00 0.00 53 1019.1
20260506210836 22 313 3.2 9.7 0.00 0.00 0.00 55 1019.2
20260506210335 22 226 3.2 9.7 0.00 0.00 0.00 54 1019.2
20260506210056 22 216 1.6 8.0 0.00 0.00 0.00 54 1019.2
20260506205335 22 279 3.2 9.7 0.00 0.00 0.00 54 1019.2
20260506204835 22 69 1.6 9.7 0.00 0.00 0.00 55 1019.2
20260506204337 22 274 3.2 9.7 0.00 0.00 0.00 55 1019.4
20260506203836 22 47 1.6 9.7 0.00 0.00 0.00 53 1019.4
20260506203335 22 110 3.2 9.7 0.00 0.00 0.00 52 1019.4
20260506202834 22 94 3.2 9.7 0.00 0.00 0.00 53 1019.6
20260506202335 22 85 1.6 9.7 0.00 0.00 0.00 56 1019.6
20260506202058 22 49 3.2 9.7 0.00 0.00 0.00 55 1019.7
20260506201335 22 7 3.2 8.0 0.00 0.00 0.00 54 1019.7
20260506201100 21 336 3.2 8.0 0.00 0.00 0.00 53 1019.7
20260506200815 21 231 3.2 11.3 0.00 0.00 0.00 53 1019.7
20260506195834 21 303 4.8 11.3 0.00 0.00 0.00 53 1019.7
20260506195335 22 62 3.2 9.7 0.00 0.00 0.00 56 1019.8
20260506194834 22 257 1.6 8.0 0.00 0.00 0.00 52 1019.8
20260506194334 22 25 3.2 9.7 0.00 0.00 0.00 53 1019.8
20260506194054 21 266 3.2 9.7 0.00 0.00 0.00 55 1019.9
20260506193335 21 317 1.6 8.0 0.00 0.00 0.00 54 1019.9
20260506192834 21 285 3.2 8.0 0.00 0.00 0.00 54 1019.9
20260506192333 21 295 1.6 6.4 0.00 0.00 0.00 55 1020.1
20260506191834 21 309 1.6 8.0 0.00 0.00 0.00 55 1020.0
20260506191334 21 10 3.2 8.0 0.00 0.00 0.00 54 1020.1
20260506190833 21 56 3.2 4.8 0.00 0.00 0.00 54 1020.2
20260506190333 21 281 3.2 11.3 0.00 0.00 0.00 55 1020.3
20260506190058 21 293 3.2 11.3 0.00 0.00 0.00 55 1020.2
20260506185334 21 248 3.2 8.0 0.00 0.00 0.00 56 1020.2
20260506184833 20 333 3.2 6.4 0.00 0.00 0.00 58 1020.2
20260506184333 20 0 1.6 8.0 0.00 0.00 0.00 58 1020.4
20260506183832 20 310 3.2 8.0 0.00 0.00 0.00 58 1020.4
20260506183332 20 317 3.2 8.0 0.00 0.00 0.00 59 1020.5
20260506183055 19 274 1.6 8.0 0.00 0.00 0.00 59 1020.4
20260506182332 19 247 3.2 9.7 0.00 0.00 0.00 59 1020.6
20260506182054 19 258 3.2 11.3 0.00 0.00 0.00 59 1020.6
20260506181332 19 281 1.6 11.3 0.00 0.00 0.00 62 1020.6
20260506180831 18 58 3.2 8.0 0.00 0.00 0.00 60 1020.5
20260506180332 18 39 3.2 8.0 0.00 0.00 0.00 62 1020.5
20260506175832 18 299 3.2 8.0 0.00 0.00 0.00 63 1020.6
20260506175331 18 0 1.6 8.0 0.00 0.00 0.00 64 1020.5
20260506175052 18 16 3.2 8.0 0.00 0.00 0.00 63 1020.6
20260506174330 17 281 3.2 8.0 0.00 0.00 0.00 65 1020.5
20260506173831 17 259 3.2 8.0 0.00 0.00 0.00 65 1020.6
20260506173331 17 331 3.2 8.0 0.00 0.00 0.00 65 1020.5
20260506172831 17 278 4.8 8.0 0.00 0.00 0.00 66 1020.6
20260506172330 17 275 3.2 11.3 0.00 0.00 0.00 65 1020.6
20260506172058 17 282 6.4 11.3 0.00 0.00 0.00 67 1020.7
20260506171331 16 254 3.2 8.0 0.00 0.00 0.00 67 1020.6
20260506170830 16 261 3.2 8.0 0.00 0.00 0.00 67 1020.6
20260506170551 16 281 3.2 9.7 0.00 0.00 0.00 68 1020.7
20260506165830 16 0 3.2 9.7 0.00 0.00 0.00 69 1020.6
20260506165330 16 278 3.2 8.0 0.00 0.00 0.00 70 1020.6
20260506164831 16 233 1.6 4.8 0.00 0.00 0.00 69 1020.6
20260506164330 16 307 1.6 8.0 0.00 0.00 0.00 71 1020.7
20260506164314 16 261 4.8 8.0 0.00 0.00 0.00 70 1020.6
20260506163330 16 302 3.2 8.0 0.00 0.00 0.00 71 1020.7
20260506162829 16 257 0.0 8.0 0.00 0.00 0.00 71 1020.7
20260506162329 15 269 3.2 6.4 0.00 0.00 0.00 72 1020.7
20260506161829 15 298 3.2 6.4 0.00 0.00 0.00 72 1020.7
20260506161328 15 326 1.6 4.8 0.00 0.00 0.00 73 1020.6
20260506160829 15 48 1.6 6.4 0.00 0.00 0.00 72 1020.8
20260506160330 15 265 1.6 6.4 0.00 0.00 0.00 72 1020.7
20260506155829 15 274 1.6 4.8 0.00 0.00 0.00 72 1020.6
20260506155329 15 271 3.2 8.0 0.00 0.00 0.00 72 1020.7
20260506154829 15 266 3.2 8.0 0.00 0.00 0.00 73 1020.7
20260506154328 15 271 1.6 6.4 0.00 0.00 0.00 74 1020.7
20260506154054 15 269 3.2 8.0 0.00 0.00 0.00 74 1020.7
20260506153328 15 275 3.2 8.0 0.00 0.00 0.00 73 1020.7
20260506152828 15 281 1.6 6.4 0.00 0.00 0.00 75 1020.6
20260506152328 15 303 3.2 6.4 0.00 0.00 0.00 75 1020.7
20260506151828 14 265 4.8 6.4 0.00 0.00 0.00 75 1020.7
20260506151328 14 274 3.2 6.4 0.00 0.00 0.00 75 1020.7
20260506150828 14 274 4.8 6.4 0.00 0.00 0.00 75 1020.6
20260506150548 14 306 1.6 4.8 0.00 0.00 0.00 75 1020.6
20260506145827 14 317 0.0 4.8 0.00 0.00 0.00 76 1020.7
20260506145545 14 272 0.0 3.2 0.00 0.00 0.00 76 1020.7
20260506144827 14 272 0.0 3.2 0.00 0.00 0.00 76 1020.7
20260506144327 14 271 0.0 4.8 0.00 0.00 0.00 76 1020.7
20260506143826 14 271 0.0 4.8 0.00 0.00 0.00 76 1020.7
20260506143327 14 271 1.6 6.4 0.00 0.00 0.00 76 1020.6
20260506142826 14 268 1.6 6.4 0.00 0.00 0.00 76 1020.6
20260506142327 13 299 0.0 6.4 0.00 0.00 0.00 76 1020.6
20260506141826 13 299 3.2 6.4 0.00 0.00 0.00 76 1020.6
20260506141325 13 274 1.6 4.8 0.00 0.00 0.00 77 1020.6
20260506141044 13 272 1.6 6.4 0.00 0.00 0.00 77 1020.5
20260506140326 13 272 1.6 6.4 0.00 0.00 0.00 77 1020.4
20260506140050 13 279 0.0 3.2 0.00 0.00 0.00 77 1020.3
20260506135326 13 283 0.0 3.2 0.00 0.00 0.00 77 1020.2
20260506134826 13 285 0.0 1.6 0.00 0.00 0.00 77 1020.2
20260506134326 13 285 0.0 1.6 0.00 0.00 0.00 77 1020.1
20260506134044 13 285 0.0 1.6 0.00 0.00 0.00 77 1020.0
20260506133326 13 285 0.0 1.6 0.00 0.00 0.00 77 1019.9
20260506132824 13 285 0.0 0.0 0.00 0.00 0.00 76 1019.8
20260506132326 13 285 0.0 1.6 0.00 0.00 0.00 76 1019.8
20260506131825 13 285 0.0 1.6 0.00 0.00 0.00 76 1019.9
20260506131326 13 285 0.0 0.0 0.00 0.00 0.00 76 1019.8
20260506131045 13 285 0.0 0.0 0.00 0.00 0.00 76 1019.7
20260506130812 13 285 0.0 1.6 0.00 0.00 0.00 76 1019.7
20260506130053 13 285 0.0 1.6 0.00 0.00 0.00 76 1019.7
20260506125326 13 285 0.0 0.0 0.00 0.00 0.00 76 1019.6
20260506124823 13 285 0.0 0.0 0.00 0.00 0.00 75 1019.6
20260506124324 13 285 0.0 1.6 0.00 0.00 0.00 75 1019.6
20260506123824 13 285 0.0 1.6 0.00 0.00 0.00 75 1019.6
20260506123546 13 285 0.0 0.0 0.00 0.00 0.00 75 1019.6
20260506122824 13 285 0.0 0.0 0.00 0.00 0.00 75 1019.6
20260506122324 13 285 0.0 0.0 0.00 0.00 0.00 75 1019.7
20260506121824 13 285 0.0 0.0 0.00 0.00 0.00 75 1019.6
20260506121544 13 285 0.0 1.6 0.00 0.00 0.00 75 1019.6
20260506120824 13 285 0.0 1.6 0.00 0.00 0.00 75 1019.5
20260506120542 13 262 0.0 0.0 0.00 0.00 0.00 74 1019.5
20260506120048 13 262 0.0 0.0 0.00 0.00 0.00 74 1019.5
20260506115323 13 262 0.0 0.0 0.00 0.00 0.00 74 1019.5
20260506114823 13 262 0.0 0.0 0.00 0.00 0.00 74 1019.3
20260506114323 13 262 0.0 3.2 0.00 0.00 0.00 74 1019.3
20260506113823 13 262 1.6 3.2 0.00 0.00 0.00 74 1019.4
20260506113322 13 266 0.0 0.0 0.00 0.00 0.00 74 1019.3
20260506112823 13 266 0.0 0.0 0.00 0.00 0.00 74 1019.3
20260506112321 13 266 0.0 0.0 0.00 0.00 0.00 74 1019.2
20260506111822 13 266 0.0 1.6 0.00 0.00 0.00 74 1019.2
20260506111322 13 266 0.0 1.6 0.00 0.00 0.00 74 1019.2
20260506110823 13 266 0.0 0.0 0.00 0.00 0.00 74 1019.2
20260506110322 13 266 0.0 0.0 0.00 0.00 0.00 75 1019.2
20260506110045 13 266 0.0 0.0 0.00 0.00 0.00 75 1019.2
20260506105322 13 266 0.0 0.0 0.00 0.00 0.00 75 1019.2
20260506104823 13 266 0.0 0.0 0.00 0.00 0.00 75 1019.1
20260506104322 13 266 0.0 0.0 0.00 0.00 0.00 74 1019.0
20260506103820 13 266 0.0 0.0 0.00 0.00 0.00 75 1019.0
20260506103321 13 266 0.0 0.0 0.00 0.00 0.00 74 1019.0
20260506102822 13 266 0.0 0.0 0.00 0.00 0.00 74 1019.0
20260506102321 14 266 0.0 0.0 0.00 0.00 0.00 74 1019.0
20260506101822 14 266 0.0 1.6 0.00 0.00 0.00 74 1019.1
20260506101321 14 266 0.0 1.6 0.00 0.00 0.00 74 1019.0
20260506100822 14 266 0.0 0.0 0.00 0.00 0.00 74 1019.1
20260506100321 14 266 0.0 0.0 0.00 0.00 0.00 74 1019.0
20260506100049 14 266 0.0 3.2 0.00 0.00 0.00 74 1019.0
20260506095320 14 266 0.0 3.2 0.00 0.00 0.00 74 1019.0
20260506094820 14 347 0.0 3.2 0.00 0.00 0.00 74 1019.0
20260506094547 14 347 0.0 3.2 0.00 0.00 0.00 74 1019.0
20260506093820 14 0 0.0 3.2 0.00 0.00 0.00 74 1019.0
20260506093319 14 293 0.0 3.2 0.00 0.00 0.00 75 1019.0
20260506092820 14 298 0.0 3.2 0.00 0.00 0.00 75 1019.1
20260506092320 14 298 0.0 3.2 0.00 0.00 0.00 75 1019.2
20260506091820 14 298 0.0 1.6 0.00 0.00 0.00 75 1019.1
20260506091541 14 250 0.0 3.2 0.00 0.00 0.00 75 1019.1
20260506090819 14 248 0.0 4.8 0.00 0.00 0.00 75 1019.1
20260506090756 14 271 0.0 4.8 0.00 0.00 0.00 76 1019.1
20260506085819 14 268 0.0 4.8 0.00 0.00 0.00 76 1019.0
20260506085319 14 254 1.6 3.2 0.00 0.00 0.00 76 1019.0
20260506085036 14 278 0.0 4.8 0.00 0.00 0.00 75 1019.0
20260506084320 13 276 1.6 4.8 0.00 0.00 0.00 75 1019.1
20260506083819 13 282 0.0 3.2 0.00 0.00 0.00 75 1019.1
20260506083317 13 282 0.0 4.8 0.00 0.00 0.00 74 1019.1
20260506082818 14 282 1.6 4.8 0.00 0.00 0.00 74 1019.2
20260506082317 14 275 0.0 4.8 0.00 0.00 0.00 74 1019.1
20260506082042 14 274 1.6 4.8 0.00 0.00 0.00 73 1019.1
20260506081318 14 234 0.0 3.2 0.00 0.00 0.00 73 1019.0
20260506080818 14 234 0.0 3.2 0.00 0.00 0.00 73 1019.0
20260506080540 14 234 0.0 4.8 0.00 0.00 0.00 73 1019.1
20260506073318 14 39 0.0 4.8 0.00 0.00 0.00 73 1018.9
20260506072816 14 271 0.0 4.8 0.00 0.00 0.00 73 1018.8
20260506072317 14 32 1.6 4.8 0.00 0.00 0.00 73 1018.8
20260506071817 14 281 0.0 3.2 0.00 0.00 0.00 73 1018.9
20260506071317 14 276 0.0 3.2 0.00 0.00 0.00 73 1018.8
20260506070816 14 281 0.0 3.2 0.00 0.00 0.00 72 1018.7
20260506070537 14 289 0.0 4.8 0.00 0.00 0.00 72 1018.6
20260506062314 15 279 1.6 4.8 0.00 0.00 0.00 70 1018.4
20260506061815 15 11 1.6 6.4 0.00 0.00 0.00 70 1018.4
20260506061804 15 10 0.0 6.4 0.00 0.00 0.00 70 1018.3
20260506061032 15 11 0.0 4.8 0.00 0.00 0.00 70 1018.3
20260506060316 15 255 1.6 4.8 0.00 0.00 0.00 70 1018.2
20260506051314 15 241 1.6 6.4 0.00 0.00 0.00 70 1018.0
20260506050814 15 261 0.0 9.7 0.00 0.00 0.00 70 1018.0
20260506050533 15 295 3.2 9.7 0.00 0.00 0.00 70 1017.9
20260506044814 15 241 1.6 6.4 0.00 0.00 0.00 70 1017.7
20260506044313 15 203 1.6 6.4 0.00 0.00 0.00 70 1017.7
20260506043814 15 254 1.6 4.8 0.00 0.00 0.00 70 1017.6
20260506043313 15 247 0.0 3.2 0.00 0.00 0.00 70 1017.5
20260506042812 15 307 1.6 4.8 0.00 0.00 0.00 69 1017.5
20260506042313 15 4 1.6 4.8 0.00 0.00 0.00 69 1017.4
20260506042034 15 278 1.6 4.8 0.00 0.00 0.00 68 1017.5
20260506041312 15 281 0.0 3.2 0.00 0.00 0.00 67 1017.4
20260506041255 15 282 0.0 3.2 0.00 0.00 0.00 67 1017.3
20260506040313 15 282 0.0 3.2 0.00 0.00 0.00 67 1017.2
20260506035812 15 281 0.0 3.2 0.00 0.00 0.00 67 1017.1
20260506035312 15 282 0.0 4.8 0.00 0.00 0.00 66 1017.1
20260506034812 15 282 0.0 4.8 0.00 0.00 0.00 66 1017.1
20260506034311 15 268 1.6 4.8 0.00 0.00 0.00 66 1017.0
20260506033811 15 255 1.6 8.0 0.00 0.00 0.00 66 1016.9
20260506033312 15 243 1.6 8.0 0.00 0.00 0.00 66 1016.9
20260506032811 15 286 0.0 0.0 0.00 0.00 0.00 66 1016.6
20260506032311 15 286 0.0 1.6 0.00 0.00 0.00 65 1016.6
20260506032036 15 286 0.0 3.2 0.00 0.00 0.00 66 1016.5
20260506031311 16 286 0.0 3.2 0.00 0.00 0.00 65 1016.5
20260506030811 16 283 1.6 3.2 0.00 0.00 0.00 66 1016.4
20260506030310 16 292 0.0 3.2 0.00 0.00 0.00 66 1016.4
20260506025811 16 288 0.0 4.8 0.00 0.00 0.00 66 1016.3
20260506025309 16 305 0.0 4.8 0.00 0.00 0.00 66 1016.2
20260506024810 16 299 1.6 4.8 0.00 0.00 0.00 66 1016.1
20260506024530 16 299 1.6 4.8 0.00 0.00 0.00 66 1016.0
20260506023810 16 298 0.0 6.4 0.00 0.00 0.00 66 1016.1
20260506023311 16 278 1.6 6.4 0.00 0.00 0.00 66 1016.0
20260506022810 16 255 3.2 4.8 0.00 0.00 0.00 65 1016.0
20260506022310 16 289 3.2 4.8 0.00 0.00 0.00 65 1016.0
20260506021810 16 282 1.6 6.4 0.00 0.00 0.00 66 1016.0
20260506021308 16 290 3.2 6.4 0.00 0.00 0.00 65 1015.9
20260506020809 16 272 1.6 6.4 0.00 0.00 0.00 66 1016.0
20260506020309 16 269 3.2 8.0 0.00 0.00 0.00 66 1015.9